This is the latest recevied weather packets stored in our database for station/object SV7GBF-2. If no packets are shown the sender has not sent any weather packets the latest 10 day(s).
| Time | Temp. | Humidity | Pressure | Rain* | Wind** | Luminosity | Snow |
|---|---|---|---|---|---|---|---|
| 1788604446 | 31.11° C | 8% | 1017 hPa | - | - | - | - |
| 1788603246 | 30.56° C | 8% | 1017 hPa | - | - | - | - |
| 1788602646 | 30° C | 8% | 1017 hPa | - | - | - | - |
| 1788602046 | 30° C | 8% | 1017 hPa | - | - | - | - |
| 1788601446 | 29.44° C | 8% | 1017 hPa | - | - | - | - |
| 1788600245 | 28.89° C | 8% | 1018 hPa | - | - | - | - |
| 1788599045 | 28.89° C | 8% | 1018 hPa | - | - | - | - |
| 1788598447 | 28.33° C | 9% | 1018 hPa | - | - | - | - |
| 1788597245 | 27.78° C | 9% | 1018 hPa | - | - | - | - |
| 1788596645 | 27.78° C | 11% | 1018 hPa | - | - | - | - |
| 1788596046 | 27.22° C | 12% | 1018 hPa | - | - | - | - |
| 1788595446 | 27.22° C | 12% | 1018 hPa | - | - | - | - |
| 1788594847 | 27.22° C | 9% | 1018 hPa | - | - | - | - |
| 1788592447 | 26.11° C | 15% | 1018 hPa | - | - | - | - |
| 1788591846 | 25.56° C | 30% | 1018 hPa | - | - | - | - |
| 1788590646 | 25° C | 32% | 1018 hPa | - | - | - | - |
| 1788590048 | 24.44° C | 37% | 1018 hPa | - | - | - | - |
| 1788589447 | 24.44° C | 38% | 1018 hPa | - | - | - | - |
| 1788588848 | 23.89° C | 41% | 1018 hPa | - | - | - | - |
| 1788587646 | 22.22° C | 40% | 1018 hPa | - | - | - | - |
| 1788587046 | 21.67° C | 39% | 1018 hPa | - | - | - | - |
| 1788586446 | 21.67° C | 38% | 1018 hPa | - | - | - | - |
| 1788585847 | 21.11° C | 37% | 1018 hPa | - | - | - | - |
| 1788585246 | 20.56° C | 37% | 1018 hPa | - | - | - | - |
| 1788584645 | 20.56° C | 36% | 1018 hPa | - | - | - | - |
* Rain since midnight (hover to see other rain measurements)
** Current wind speed in m/s (hover to see current wind gust speed)